Regional Weather Roundup
Issued by NWS

Home | Current Version | Previous Version | Graphics & Text | Print | Product List | Glossary On
Versions: 1 2 3 4 5 6 7 8 9 10 11 12 13 14 15 16 17 18 19 20 21 22 23 24 25 26 27 28 29 30 31 32 33 34 35 36 37 38 39 40 41 42 43 44 45 46 47 48 49 50
000
ASUS43 KLMK 220710
RWRKY
KENTUCKY REGIONAL WEATHER ROUNDUP
NATIONAL WEATHER SERVICE LOUISVILLE KY
200 AM EST SUN JAN 22 2017

NOTE "FAIR" INDICATES FEW OR NO CLOUDS BELOW 12,000 FEET
WITH NO SIGNIFICANT WEATHER AND/OR OBSTRUCTIONS TO VISIBILITY.

KYZ001>023-026-027-061>063-070>075-220800-
WESTERN AND SOUTH CENTRAL KENTUCKY

CITY           SKY/WX    TMP DP  RH WIND       PRES   REMARKS
PADUCAH        CLOUDY    53  48  83 SE6       29.46F
HENDERSON      CLEAR     52  45  76 E6        29.49F
OWENSBORO      CLEAR     53  48  83 E8        29.51F
HOPKINSVILLE   MOCLDY    53  50  89 E5        29.50F
BOWLING GREEN  CLEAR     51  47  86 E5        29.53F
GLASGOW        CLEAR     50  50 100 E7        29.54F
$$

KYZ024-025-028>034-038-045-046-053-220800-
NORTH CENTRAL KENTUCKY

CITY           SKY/WX    TMP DP  RH WIND       PRES   REMARKS
LOUISVILLE/SDF PTCLDY    51  46  83 E5        29.56F
LOUISVILLE/LOU PTCLDY    49  46  90 N3        29.57F
FORT KNOX      CLEAR     49  46  89 E3        29.54F
$$

KYZ035>037-039>044-047>052-055>060-089>105-220800-
NORTHEAST KENTUCKY

CITY           SKY/WX    TMP DP  RH WIND       PRES   REMARKS
LEXINGTON      PTCLDY    52  47  83 E7        29.59F
COVINGTON      CLEAR     51  50  96 S3        29.61F
FRANKFORT      CLOUDY    46  42  86 CALM      29.58F
$$

KYZ054-064>069-076>088-106>120-220800-
SOUTHEAST KENTUCKY

CITY           SKY/WX    TMP DP  RH WIND       PRES   REMARKS
JACKSON        PTCLDY    54  50  86 CALM      29.63F
LONDON         FOG       45  43  93 E3        29.61F VSB 1/4
SOMERSET       FOG       43  43 100 CALM      29.60F VSB 3/4
MIDDLESBORO    FOG       43  43 100 CALM      29.65F VSB 1/4
MONTICELLO     CLOUDY    45  44  97 W9        29.61F
$$





USA.gov is the U.S. government's official web portal to all federal, state and local government web resources and services.